DW7110 Weather Reports


Display with metric or nautical units.
time (UTC)temp
F
wind
direction
speed
MPH
gust
MPH
rain 1hr
in
rain 24hr
in
rain mn
in
humidity
%
barometer
mb
20260831094532 67 1 0.0 0.0 0.00 0.00 0.00 94 1021.9
20260831093029 67 1 0.0 0.0 0.00 0.00 0.00 94 1021.9
20260831091626 67 1 0.0 0.0 0.00 0.00 0.00 94 1021.9
20260831090027 67 1 0.0 0.0 0.00 0.00 0.00 94 1021.8
20260831084524 67 1 0.0 0.0 0.00 0.00 0.00 94 1021.7
20260831083026 67 1 0.0 0.0 0.00 0.00 0.00 94 1021.9
20260831081524 67 1 0.0 0.0 0.00 0.00 0.00 94 1021.7
20260831080042 67 1 0.0 0.0 0.00 0.00 0.00 94 1021.8
20260831074522 67 1 0.0 0.0 0.00 0.00 0.00 94 1021.9
20260831073030 67 1 0.0 0.0 0.00 0.00 0.00 93 1021.8
20260831071519 67 1 0.0 0.0 0.00 0.00 0.00 93 1022.0
20260831070020 67 1 0.0 0.0 0.00 0.00 0.00 93 1022.0
20260831064517 67 1 0.0 0.0 0.00 0.35 0.00 93 1022.0
20260831063020 67 1 0.0 0.0 0.00 0.35 0.00 93 1022.1
20260831061515 67 1 0.0 0.0 0.00 0.35 0.00 93 1022.3
20260831060014 68 1 0.0 0.0 0.00 0.35 0.00 93 1022.4
20260831054512 68 1 0.0 0.0 0.00 0.44 0.00 92 1022.4
20260831053015 68 1 0.0 0.0 0.00 0.44 0.00 92 1022.4
20260831051512 68 1 0.0 0.0 0.00 0.44 0.00 92 1022.5
20260831050009 68 1 0.0 0.0 0.00 0.44 0.00 92 1022.3
20260831044513 69 1 0.0 0.0 0.00 0.44 0.00 92 1022.2
20260831043007 69 1 0.0 0.0 0.00 0.44 0.00 92 1022.3
20260831041510 69 1 0.0 0.0 0.00 0.44 0.00 92 1022.4
20260831040003 69 1 0.0 0.0 0.00 0.44 0.00 91 1022.5
20260831034503 69 1 0.0 0.0 0.00 0.44 0.44 92 1022.5
20260831033004 69 1 0.0 0.0 0.00 0.44 0.44 92 1022.6
20260831031502 70 1 0.0 0.0 0.00 0.44 0.44 91 1022.5
20260831030001 70 1 0.0 0.0 0.00 0.44 0.44 91 1022.5
20260831024600 70 1 0.0 0.0 0.00 0.44 0.44 91 1022.5
20260831023059 70 1 0.0 0.0 0.00 0.44 0.44 91 1022.6
20260831021559 70 1 0.0 0.0 0.00 0.44 0.44 91 1022.5
20260831020059 70 1 0.0 0.0 0.00 0.44 0.44 91 1022.4
20260831014558 71 1 0.0 0.0 0.00 0.44 0.44 91 1022.4
20260831013058 71 1 0.0 0.0 0.00 0.44 0.44 90 1022.1
20260831011600 72 1 0.0 0.0 0.00 0.44 0.44 89 1021.8
20260831004556 73 1 0.0 0.0 0.00 0.44 0.44 88 1021.7
20260831003056 73 1 0.0 0.0 0.00 0.44 0.44 87 1021.6
20260831001555 74 1 0.0 0.0 0.00 0.44 0.44 86 1021.5
20260831000101 74 1 0.0 0.0 0.00 0.44 0.44 85 1021.5
20260830234600 75 1 0.0 0.0 0.00 0.44 0.44 84 1021.1
20260830233054 75 1 0.0 0.0 0.00 0.44 0.44 82 1021.0
20260830231553 75 1 0.0 0.0 0.00 0.44 0.44 81 1020.7
20260830230059 76 1 0.0 3.0 0.00 0.44 0.44 81 1020.7
20260830224553 77 1 0.0 4.0 0.00 0.44 0.44 77 1020.7
20260830223101 78 1 0.0 6.0 0.00 0.44 0.44 78 1020.8
20260830221607 79 1 2.0 9.0 0.00 0.44 0.44 75 1020.7
20260830220053 81 1 0.0 7.0 0.00 0.44 0.44 73 1020.7
20260830214550 81 1 0.0 4.0 0.00 0.44 0.44 73 1020.6
20260830213048 81 1 0.0 4.0 0.00 0.44 0.44 75 1020.5
20260830211548 81 1 0.0 5.0 0.00 0.44 0.44 74 1020.5
20260830210046 80 1 2.0 4.0 0.00 0.44 0.44 74 1020.5
20260830204545 80 1 0.0 1.0 0.00 0.44 0.44 75 1020.6
20260830203050 80 1 0.0 2.0 0.00 0.44 0.44 75 1020.8
20260830201554 80 1 0.0 0.0 0.00 0.44 0.44 74 1020.8
20260830200053 80 1 0.0 0.0 0.00 0.44 0.44 73 1021.1
20260830194537 80 1 0.0 3.0 0.00 0.44 0.44 75 1021.3
20260830193035 80 1 1.0 4.0 0.00 0.44 0.44 75 1021.5
20260830191532 79 1 0.0 5.0 0.00 0.44 0.44 74 1021.6
20260830190030 79 1 0.0 3.0 0.00 0.44 0.44 78 1021.8
20260830184525 78 1 0.0 1.0 0.00 0.44 0.44 80 1022.1
20260830183023 77 1 0.0 1.0 0.00 0.44 0.44 78 1022.5
20260830181521 77 1 0.0 0.0 0.00 0.44 0.44 81 1022.6
20260830180021 76 1 0.0 2.0 0.00 0.44 0.44 83 1022.8
20260830174518 77 1 3.0 6.0 0.00 0.44 0.44 80 1022.9
20260830173016 76 1 0.0 3.0 0.00 0.44 0.44 85 1023.2
20260830171513 75 1 0.0 0.0 0.00 0.44 0.44 83 1023.3
20260830170009 74 1 0.0 0.0 0.00 0.44 0.44 87 1023.5
20260830164530 74 1 0.0 0.0 0.00 0.44 0.44 88 1023.8
20260830163008 74 1 0.0 0.0 0.00 0.44 0.44 86 1023.9
20260830161506 74 1 0.0 0.0 0.00 0.44 0.44 88 1024.1
20260830160005 73 1 0.0 0.0 0.00 0.44 0.44 88 1024.1
20260830154502 72 1 0.0 0.0 0.00 0.44 0.44 92 1024.2
20260830153108 71 1 0.0 0.0 0.00 0.44 0.44 94 1024.2
20260830151555 70 1 0.0 1.0 0.00 0.44 0.44 95 1024.4
20260830150058 69 1 0.0 0.0 0.00 0.44 0.44 95 1024.7
20260830144549 68 1 0.0 0.0 0.00 0.44 0.44 95 1024.7
20260830143049 68 1 0.0 0.0 0.00 0.44 0.44 95 1024.5
20260830141548 68 1 0.0 0.0 0.00 0.44 0.44 95 1024.6
20260830140047 68 1 0.0 0.0 0.00 0.44 0.44 95 1024.6
20260830134545 67 1 0.0 0.0 0.00 0.44 0.44 95 1024.3
20260830133045 67 1 0.0 0.0 0.00 0.44 0.44 95 1024.3
20260830131546 66 1 0.0 0.0 0.00 0.44 0.44 95 1024.5
20260830130044 66 1 0.0 0.0 0.00 0.44 0.44 95 1024.5
20260830124542 66 1 0.0 0.0 0.00 0.44 0.44 95 1024.4
20260830123043 66 1 0.0 0.0 0.00 0.44 0.44 95 1024.3
20260830121540 66 1 0.0 0.0 0.00 0.44 0.44 95 1024.1
20260830120044 66 1 0.0 0.0 0.00 0.44 0.44 94 1023.8
20260830114538 65 1 0.0 0.0 0.00 0.44 0.44 95 1023.7
20260830113037 65 1 0.0 0.0 0.00 0.44 0.44 94 1023.7
20260830111537 65 1 0.0 0.0 0.00 0.44 0.44 94 1023.4
20260830110035 65 1 0.0 0.0 0.00 0.44 0.44 94 1023.2
20260830104536 65 1 0.0 0.0 0.00 0.44 0.44 94 1023.0
20260830103034 65 1 0.0 0.0 0.00 0.44 0.44 94 1022.9
20260830101533 66 1 0.0 0.0 0.00 0.44 0.44 94 1022.9
20260830100035 66 1 0.0 0.0 0.00 0.44 0.44 94 1022.8